Location: Kosice
(0.0000°N, 21.2500°E)
Time: 18:08:23
(UTC+01:00)

BREEZE-M DEB (TANK) - Pass Details

Date: 24 January 2021
Orbit: 353 x 16373 km, 49.4° (Epoch: 01 March)

Event Time Altitude Azimuth Distance (km) Brightness Sun altitude
Rises 19:05:51 0° 218° (SW) 15,448 10.6 -18.5°
Reaches altitude 10° 19:24:32 10° 218° (SW) 11,020 9.7 -22.9°
Maximum altitude 19:53:04 80° 304° (NW) 1,771 4.7 -29.6°
Enters shadow 19:55:13 53° 20° (NNE) 1,661 4.3 -30.1°
